EW3946 Weather Reports


time (UTC)temp
C
wind
direction
speed
KPH
gust
KPH
rain 1hr
cm
rain 24hr
cm
rain mn
cm
humidity
%
barometer
mb
20260505214521 25 16.1 27.4 0.00 0.00 0.00 26 1006.9
20260505213025 25 6.4 27.4 0.00 0.00 0.00 27 1007.2
20260505211521 24 11.3 24.1 0.00 0.00 0.00 28 1007.2
20260505210018 23 4.8 11.3 0.00 0.00 0.00 30 1007.5
20260505204518 23 6.4 14.5 0.00 0.00 0.00 29 1007.9
20260505203027 24 4.8 14.5 0.00 0.00 0.00 28 1008.1
20260505201517 24 4.8 8.0 0.00 0.00 0.00 28 1008.2
20260505200014 25 1.6 6.4 0.00 0.00 0.00 29 1008.5
20260505194513 24 3.2 11.3 0.00 0.00 0.00 28 1008.5
20260505193053 24 3.2 8.0 0.00 0.00 0.00 28 1008.7
20260505191603 24 3.2 12.9 0.00 0.00 0.00 29 1008.9
20260505190104 23 6.4 16.1 0.00 0.00 0.00 28 1009.3
20260505184603 23 1.6 8.0 0.00 0.00 0.00 28 1009.2
20260505183110 23 0.0 4.8 0.00 0.00 0.00 30 1009.4
20260505181544 22 1.6 6.4 0.00 0.00 0.00 31 1009.6
20260505180045 20 1.6 8.0 0.00 0.00 0.00 33 1010.0
20260505174540 21 4.8 11.3 0.00 0.00 0.00 33 1010.1
20260505173047 21 0.0 9.7 0.00 0.00 0.00 32 1010.1
20260505171544 21 0.0 8.0 0.00 0.00 0.00 33 1010.2
20260505170037 21 1.6 8.0 0.00 0.00 0.00 33 1010.0
20260505164533 20 0.0 8.0 0.00 0.00 0.00 36 1009.9
20260505163032 20 1.6 6.4 0.00 0.00 0.00 36 1010.0
20260505161532 18 1.6 8.0 0.00 0.00 0.00 38 1010.0
20260505153028 17 3.2 11.3 0.00 0.00 0.00 45 1010.3
20260505151533 17 4.8 12.9 0.00 0.00 0.00 46 1009.8
20260505124601 18 8.0 17.7 0.00 0.00 0.00 34 1008.2
20260505123042 18 6.4 19.3 0.00 0.00 0.00 34 1007.9
20260505121541 18 6.4 17.7 0.00 0.00 0.00 34 1007.6
20260505120100 18 3.2 14.5 0.00 0.00 0.00 35 1007.5
20260505114538 18 4.8 14.5 0.00 0.00 0.00 35 1007.3
20260505113043 18 4.8 12.9 0.00 0.00 0.00 35 1007.3
20260505111538 18 4.8 16.1 0.00 0.00 0.00 36 1007.5
20260505101532 19 8.0 17.7 0.00 0.00 0.00 34 1007.4
20260505100031 18 8.0 20.9 0.00 0.00 0.00 34 1007.2
20260505094526 18 4.8 16.1 0.00 0.00 0.00 33 1007.3
20260505093025 18 6.4 17.7 0.00 0.00 0.00 33 1007.2
20260505091527 18 4.8 16.1 0.00 0.00 0.00 33 1007.0
20260505090036 18 6.4 17.7 0.00 0.00 0.00 33 1007.1
20260505084519 17 6.4 17.7 0.00 0.00 0.00 33 1007.0
20260505083015 18 6.4 19.3 0.00 0.00 0.00 32 1006.9
20260505081514 18 8.0 16.1 0.00 0.00 0.00 31 1006.8
20260505080009 18 6.4 12.9 0.00 0.00 0.00 31 1006.6
20260505074508 18 6.4 17.7 0.00 0.00 0.00 32 1006.8
20260505073004 18 6.4 16.1 0.00 0.00 0.00 31 1006.7
20260505071500 19 6.4 19.3 0.00 0.00 0.00 29 1006.8
20260505070101 19 8.0 16.1 0.00 0.00 0.00 29 1006.7
20260505064555 20 9.7 17.7 0.00 0.00 0.00 28 1006.9
20260505063048 20 6.4 16.1 0.00 0.00 0.00 26 1006.7
20260505061552 20 8.0 14.5 0.00 0.00 0.00 26 1006.7
20260505060042 21 8.0 16.1 0.00 0.00 0.00 25 1006.7
20260505054600 21 9.7 17.7 0.00 0.00 0.00 25 1006.6
20260505053052 21 8.0 20.9 0.00 0.00 0.00 24 1006.7
20260505051540 21 6.4 17.7 0.00 0.00 0.00 24 1006.8
20260505041538 20 8.0 14.5 0.00 0.00 0.00 25 1006.9
20260505040038 20 4.8 11.3 0.00 0.00 0.00 25 1007.0
20260505034538 21 4.8 11.3 0.00 0.00 0.00 25 1006.9
20260505033037 21 4.8 14.5 0.00 0.00 0.00 23 1006.9
20260505031546 22 6.4 14.5 0.00 0.00 0.00 22 1006.7
20260505030036 22 8.0 17.7 0.00 0.00 0.00 22 1006.6
20260505024540 22 9.7 17.7 0.00 0.00 0.00 21 1006.5
20260505023030 22 8.0 17.7 0.00 0.00 0.00 21 1006.4
20260505021529 22 6.4 16.1 0.00 0.00 0.00 22 1006.3
20260505020032 23 6.4 14.5 0.00 0.00 0.00 21 1006.1
20260505014534 23 6.4 14.5 0.00 0.00 0.00 22 1005.9
20260505013026 23 8.0 22.5 0.00 0.00 0.00 22 1006.0
20260505011532 24 8.0 19.3 0.00 0.00 0.00 21 1006.1
20260505010026 24 6.4 17.7 0.00 0.00 0.00 21 1006.0
20260505004541 25 6.4 16.1 0.00 0.00 0.00 20 1006.1
20260505003022 25 8.0 22.5 0.00 0.00 0.00 20 1006.2
20260505001520 25 11.3 22.5 0.00 0.00 0.00 19 1006.6
20260505000034 26 11.3 30.6 0.00 0.00 0.00 19 1006.6
20260504234518 26 14.5 27.4 0.00 0.00 0.00 18 1006.8
20260504233017 26 12.9 25.7 0.00 0.00 0.00 18 1006.7
20260504231517 26 11.3 24.1 0.00 0.00 0.00 18 1006.8
20260504230017 26 14.5 29.0 0.00 0.00 0.00 18 1006.9
20260504224516 26 8.0 25.7 0.00 0.00 0.00 17 1006.8
20260504223014 27 14.5 33.8 0.00 0.00 0.00 16 1006.8
20260504221514 27 16.1 27.4 0.00 0.00 0.00 15 1006.9
20260504220014 27 11.3 35.4 0.00 0.00 0.00 15 1007.0